Regional Weather Roundup
Issued by NWS

Home | Current Version | Previous Version | Graphics & Text | Print | Product List | Glossary On
Versions: 1 2 3 4 5 6 7 8 9 10 11 12 13 14 15 16 17 18 19 20 21 22 23 24 25 26 27 28
000
ASUS45 KTFX 242210
RWRMT
MONTANA REGIONAL WEATHER ROUNDUP
NATIONAL WEATHER SERVICE GREAT FALLS MT
400 PM MDT SAT SEP 24 2016

NOTE: "FAIR" INDICATES FEW OR NO CLOUDS BELOW 12000 FEET WITH NO
SIGNIFICANT WEATHER AND/OR OBSTRUCTIONS TO VISIBILITY.

MTZ001>007-043-242300-
WEST OF THE DIVIDE

CITY           SKY/WX    TMP DP  RH WIND       PRES   REMARKS
KALISPELL      PTSUNNY   62  40  44 S9        30.21F
MISSOULA       MOSUNNY   64  33  31 W16       30.26R
BUTTE          PTSUNNY   54  29  38 NW18G25   30.25R
MULLAN PASS    PTSUNNY   44  35  70 NW8G17    30.33S
ANACONDA         N/A     55  28  35 W12G18    30.25R
DEER LODGE       N/A     55  34  44 NW16G25   30.28R
EUREKA           N/A     66  30  26 SW8       30.18F
HAMILTON         N/A     61  30  31 W10G16    30.29R
LIBBY            N/A     64  32  29 NW9       30.21F
PLAINS           N/A     65  33  30 W9        30.25R
RONAN            N/A     63  34  33 SW5       30.26F
THOMPSON FALLS   N/A     65  37  35 SW10      30.28S
$$

MTZ008-052>055-242300-
SOUTHWEST MONTANA

CITY           SKY/WX    TMP DP  RH WIND       PRES   REMARKS
BOZEMAN        CLOUDY    57  38  48 VRB3      30.20R
DILLON         PTSUNNY   59  30  33 VRB3      30.21R
W YELLOWSTONE  MOSUNNY   50  28  43 W6        30.23R
ENNIS          CLOUDY    55  30  38 NE12G18   30.25R
THREE FORKS      N/A     61 -42   1 NW16      30.18R
TWIN BRIDGES     N/A     61  31  32 W10       30.18R
$$

MTZ009-010-012-014-046-048-049-054-242300-
EAST SLOPES AND CENTRAL MONTANA

CITY           SKY/WX    TMP DP  RH WIND       PRES   REMARKS
CUT BANK       CLOUDY    56  40  55 N16       30.16R
GREAT FALLS    CLOUDY    61  37  41 NW17G26   30.16R
MALMSTROM AFB  CLOUDY    62  38  41 NW21G32   30.15R
HELENA         CLOUDY    64  31  28 W22G28    30.19R
AUGUSTA          N/A     59  31  35 NW22G31   30.19R
BOWMANS CRNR   MOCLDY    59  30  34 NW20G25   30.17R
CHOTEAU          N/A     61  34  36 W15G23    30.19R
CONRAD           N/A     59  45  59 NW8       30.16S
FAIRFIELD      MOCLDY    60  35  39 NW13G20   30.16R
POWER            N/A     58  37  45 NW17G24   30.16R
RAYNESFORD     MOCLDY    57  37  47 NW17G24   30.15R
$$

MTZ011-013-016-021-045-047-050-051-242300-
NORTH CENTRAL MONTANA

CITY           SKY/WX    TMP DP  RH WIND       PRES   REMARKS
HAVRE          MOSUNNY   63  46  54 NW20G35   30.07R
LEWISTOWN      LGT RAIN  53  43  68 NW16G24   30.09R
N BAR RANCH    CLOUDY    52  41  66 NW22G29   30.08R
CHINOOK          N/A     63  45  51 NW18G26   30.03R
DENTON         LGT RAIN  55  45  69 NW23G32   30.06R
GEYSER           N/A     59  31  35 NW22G31   30.19R
GRASS RANGE    MOCLDY    57  42  57 NW26G38   30.02R
JUDITH GAP     MOCLDY    54  38  55 NW28G41   30.11R
ROY            MOCLDY    60  44  56 MISG      30.00R
STANFORD       MOCLDY    55  39  55 NW20G29   30.13R
WINIFRED       MOCLDY    57  45  62 NW25      30.06R
$$

MTZ017>020-022>027-061-062-242300-
NORTHEAST MONTANA

CITY           SKY/WX    TMP DP  RH WIND       PRES   REMARKS
GLASGOW        CLOUDY    53  48  83 NW26G32   29.93R
JORDAN           N/A     51  48  89 NW18      29.95R
SIDNEY         LGT RAIN  54  52  93 N24G31    29.77R
WOLF POINT     LGT RAIN  57  51  80 NW13      29.88R
PLENTYWOOD       N/A    N/A N/A N/A N13G23    29.83R
POPLAR           N/A    N/A N/A N/A NW16      29.86R
SCOBEY           N/A     51  45  80 NW18      29.88R
$$

MTZ028>42-056>058-242300-
SOUTHCENTRAL AND SOUTHEAST MONTANA

CITY           SKY/WX    TMP DP  RH WIND       PRES   REMARKS
BAKER          LGT RAIN  52  50  93 NW24G36   29.74S FOG
BILLINGS       CLOUDY    62  35  36 NW29G43   30.03R
LIVINGSTON     PTSUNNY   57  35  43 NW16      30.17R
MILES CITY     LGT RAIN  50  47  89 NW23G30   29.88R
BIG TIMBER     CLOUDY    57  36  44 W22G30    30.16R
EKALAKA          N/A     48  46  93 W15       29.80R
FORSYTH          N/A    N/A N/A N/A W13G22    29.96R
HARLOWTON      MOCLDY    56  34  43 NW20G29   30.12R
LAUREL           N/A     63  35  35 W16       30.06R
ROUNDUP          N/A     65  37  35 W23       29.93R
$$

REGIONAL REPORTS...DAKOTAS

CITY           SKY/WX    TMP DP  RH WIND       PRES   REMARKS
WILLISTON      LGT RAIN  56  53  90 N28G38    29.75S FOG
MINOT          MOSUNNY   79  63  57 S14       29.64F
DICKINSON      MOSUNNY   67  51  56 S14G22    29.67R
CROSBY         LGT RAIN  54  54 100 N24G31    29.80R
WATFORD CITY   CLOUDY    55  55 100 N16       29.72R
BISMARCK       SUNNY     77  53  43 S17       29.69S
GRAND FORKS    CLOUDY    75  66  73 SE17      29.77S
FARGO          CLOUDY    77  65  66 SE13      29.79R
BUFFALO SD       N/A     55  53  93 W25G33    29.70R
RAPID CITY     SUNNY     64  40  41 W20       29.87R
$$

REGIONAL REPORTS...WYOMING/IDAHO/WASHINGTON

CITY           SKY/WX    TMP DP  RH WIND       PRES   REMARKS
GILLETTE       LGT RAIN  44  42  93 W26G36    30.01S
SHERIDAN       LGT RAIN  49  44  83 W13       30.06S
BUFFALO WY     LGT RAIN  45  40  82 NW7       30.08R
CODY           CLOUDY    48  43  81 CALM      30.16R
YELLOWSTONE LA   N/A     44  31  60 CALM      30.26R
IDAHO FALLS    PTSUNNY   60  43  53 S16       30.22R
SALMON         PTSUNNY   61  30  31 W12       30.25R
BOISE          SUNNY     66  34  30 W14       30.29S
SPOKANE        MOSUNNY   65  35  33 W12G21    30.31R
$$

REGIONAL REPORTS...ALBERTA

CITY           SKY/WX    TMP DP  RH WIND       PRES   REMARKS
EDMONTON       MOSUNNY   59  32  36 NW14G24   30.06S
CALGARY        MOSUNNY   59  32  36 NW6       30.13S
LETHBRIDGE     PTSUNNY   59  41  51 NW8       30.16R
MEDICINE HAT   MOSUNNY   63  37  39 N16G23    30.09R
WATERTON GATE    N/A     54  34  47 SW12G20     N/A
CARDSTON         N/A     57  39  51 N6          N/A
MILK RIVER       N/A     57  45  62 NW13        N/A
ONEFOUR          N/A     57  43  58 NW22G28     N/A
$$

REGIONAL REPORTS...SASKATCHEWAN

CITY           SKY/WX    TMP DP  RH WIND       PRES   REMARKS
SWIFT CURRENT  CLOUDY    54  46  76 NW22G30   29.98R
REGINA         LGT RAIN  52  50  93 NW24      29.86F
SASKATOON      CLOUDY    55  50  82 NW12      29.95R
CYPRESS HILLS    N/A     48  41  76 N8G17       N/A
VAL MARIE        N/A     54  45  71 N24G32      N/A
ROCKGLEN         N/A     48  46  93 N24G33      N/A
ASSINIBOIA       N/A     61  32  33 W21G28      N/A
$$




USA.gov is the U.S. government's official web portal to all federal, state and local government web resources and services.